Flag for Taiwan Weather past 2 weeks in Taipei, Taiwan

Now
64 °F

Fog.


Feels Like: 64 °F
Forecast: 57 / 61 °F
Wind: 13 mph from East

Location: Sungshan / Taipei

Current Time: Mar 3, 2015 at 7:56:34 PM

Latest Report: Mar 3, 2015 at 7:00 PM


Visibility: 3 mi

Pressure: 29.92 "Hg

Humidity: 83%

Dew point: 59 °F

Location of TaipeiLocation

Historic Weather in Taipei — Graph

°F

Taipei temperature yesterday

Maximum temperature yesterday: 63 °F (at 6:00 PM)
Minimum temperature yesterday: 55 °F (at 12:00 AM)
Average temperature yesterday: 60 °F

Past Weeks' High & Low Weather Summary

 TemperatureHumidityPressure
High81 °F (Feb 21, 1:00 PM)100% (Feb 24, 6:30 AM)30.27 "Hg (Feb 24, 6:30 AM)
Low54 °F (Mar 1, 6:00 PM)39% (Feb 21, 1:00 PM)29.83 "Hg (Mar 3, 1:30 PM)
Average65 °F75%30.05 "Hg
* Reported Feb 16 6:00 PM — Mar 3 6:30 PM, Taipei, Weather by CustomWeather, © 2015

Note: Actual official high and low records may vary slightly from our data, if they occured in-between our weather recording intervals... More about our weather records

Advertising

Taipei weather history for previous 24 hours

 ConditionsComfort  
Time TempWeatherWind HumidityBarometerVisibility
6:30 PM
Tue, Mar 3
66 °FPassing clouds.14 mph78%29.92 "Hg4 mi
6:00 PM68 °FPassing clouds.10 mph73%29.89 "Hg4 mi
5:30 PM70 °FPartly sunny.8 mph69%29.89 "Hg4 mi
5:03 PM70 °FBroken clouds.6 mph69%29.89 "Hg4 mi
4:30 PM73 °FScattered clouds.9 mph61%29.86 "Hg4 mi
4:00 PM73 °FScattered clouds.10 mph61%29.86 "Hg4 mi
3:30 PM75 °FScattered clouds.9 mph57%29.83 "Hg4 mi
3:00 PM75 °FPassing clouds.10 mph57%29.83 "Hg4 mi
2:30 PM77 °FPassing clouds.5 mph57%29.83 "Hg4 mi
2:00 PM77 °FPassing clouds.9 mph57%29.83 "Hg4 mi
1:30 PM77 °FPassing clouds.10 mph57%29.83 "Hg4 mi
1:00 PM77 °FPassing clouds.10 mph57%29.86 "Hg4 mi
12:30 PM79 °FScattered clouds.5 mph54%29.86 "Hg4 mi
12:00 PM77 °FScattered clouds.3 mph54%29.89 "Hg3 mi
11:30 AM75 °FScattered clouds.5 mph57%29.89 "Hg3 mi
11:00 AM73 °FBroken clouds.3 mph61%29.92 "Hg3 mi
10:30 AM73 °FScattered clouds.3 mph61%29.92 "Hg2 mi
10:00 AM72 °FScattered clouds.5 mph65%29.92 "Hg2 mi
9:30 AM70 °FHaze.3 mph69%29.95 "Hg3 mi
9:00 AM68 °FHaze.3 mph73%29.98 "Hg3 mi
8:30 AM66 °FHaze.5 mph73%29.98 "Hg3 mi
8:00 AM64 °FScattered clouds.6 mph78%29.95 "Hg3 mi
7:30 AM64 °FScattered clouds.6 mph78%29.95 "Hg3 mi
7:00 AM63 °FScattered clouds.5 mph83%29.95 "Hg4 mi
6:30 AM63 °FPartly sunny.8 mph83%29.92 "Hg4 mi
6:00 AM63 °FPartly cloudy.9 mph83%29.92 "Hg4 mi
5:00 AM63 °FPassing clouds.2 mph77%29.92 "Hg4 mi
4:00 AM59 °FPartly cloudy.6 mph88%29.92 "Hg4 mi
3:00 AM63 °FPassing clouds.2 mph77%29.95 "Hg5 mi
2:00 AM63 °FPassing clouds.5 mph77%29.95 "Hg5 mi
1:00 AM63 °FPassing clouds.2 mph77%29.95 "HgN/A
12:00 AM63 °FPassing clouds.2 mph83%29.95 "Hg5 mi
11:30 PM
Mon, Mar 2
63 °FPassing clouds.2 mph83%29.95 "Hg4 mi
11:00 PM63 °FPassing clouds.No wind83%29.95 "Hg4 mi
10:30 PM63 °FPassing clouds.2 mph83%29.95 "Hg4 mi
10:00 PM61 °FPassing clouds.No wind88%29.95 "Hg4 mi
9:30 PM61 °FPassing clouds.2 mph88%29.95 "Hg4 mi
9:00 PM61 °FPassing clouds.5 mph83%29.95 "Hg4 mi
8:30 PM61 °FPassing clouds.6 mph83%29.95 "Hg4 mi
8:00 PM63 °FPassing clouds.9 mph77%29.95 "Hg4 mi
7:30 PM63 °FPassing clouds.9 mph77%29.95 "Hg4 mi
7:00 PM63 °FPassing clouds.12 mph77%29.95 "Hg4 mi
Weather by CustomWeather, © 2015

See weather overviewHow to use our weather pages